Flag for Uzbekistan Weather past 2 weeks in Samarkand, Uzbekistan

Now
97 °F

Clear.


Feels Like: 94 °F
Forecast: 72 / 100 °F
Wind: 5 mph from North

Location: Samarkand

Current Time: Aug 3, 2015 at 2:26:07 PM

Latest Report: Aug 3, 2015 at 1:30 PM


Visibility: N/A

Pressure: 29.77 "Hg (27.49 "Hg at 721m altitude)

Humidity: 22%

Dew point: 52 °F

Location of SamarkandLocation

Historic Weather in Samarkand — Graph

°F

Samarkand temperature yesterday

Maximum temperature yesterday: 97 °F (at 2:00 PM)
Minimum temperature yesterday: 68 °F (at 2:30 AM)
Average temperature yesterday: 84 °F

Past Weeks' High & Low Weather Summary

 TemperatureHumidityPressure
High97 °F (Jul 20, 3:30 PM)73% (Aug 3, 4:00 AM)29.95 "Hg (Aug 3, 4:00 AM)
Low63 °F (Jul 31, 5:30 AM)12% (Jul 31, 2:30 PM)29.62 "Hg (Jul 20, 3:00 AM)
Average82 °F32%29.77 "Hg
* Reported Jul 19 1:00 PM — Aug 3 1:00 PM, Samarkand, Weather by CustomWeather, © 2015

Note: Actual official high and low records may vary slightly from our data, if they occured in-between our weather recording intervals... More about our weather records

Advertising

Samarkand weather history for previous 24 hours

 ConditionsComfort  
Time TempWeatherWind HumidityBarometerVisibility
1:00 PM
Mon, Aug 3
95 °FClear.7 mph23%29.77 "HgN/A
12:30 PM95 °FClear.6 mph23%29.77 "HgN/A
12:00 PM95 °FClear.3 mph23%29.77 "HgN/A
11:30 AM93 °FClear.3 mph24%29.77 "HgN/A
11:00 AM93 °FClear.3 mph21%29.77 "HgN/A
10:30 AM93 °FClear.6 mph21%29.77 "HgN/A
10:00 AM91 °FClear.5 mph24%29.77 "HgN/A
9:30 AM90 °FClear.3 mph31%29.77 "HgN/A
9:00 AM86 °FClear.6 mph35%29.77 "HgN/A
8:30 AM84 °FClear.9 mph33%29.77 "HgN/A
8:00 AM82 °FClear.5 mph32%29.77 "HgN/A
7:30 AM81 °FClear.3 mph37%29.77 "HgN/A
7:00 AM77 °FClear.2 mph47%29.77 "HgN/A
6:30 AM72 °FClear.3 mph53%29.77 "HgN/A
6:00 AM70 °FClear.5 mph57%29.77 "HgN/A
5:00 AM72 °FClear.6 mph53%29.77 "HgN/A
4:00 AM66 °FClear.5 mph73%29.77 "HgN/A
3:30 AM68 °FClear.3 mph69%29.77 "HgN/A
3:00 AM68 °FClear.3 mph69%29.77 "HgN/A
2:30 AM68 °FClear.3 mph64%29.77 "HgN/A
2:00 AM70 °FClear.1 mph60%29.77 "HgN/A
1:30 AM72 °FClear.2 mph50%29.77 "HgN/A
1:00 AM73 °FClear.1 mph47%29.77 "HgN/A
12:30 AM75 °FClear.2 mph44%29.77 "HgN/A
12:00 AM75 °FClear.2 mph44%29.77 "HgN/A
11:30 PM
Sun, Aug 2
77 °FClear.No wind39%29.77 "HgN/A
11:00 PM81 °FClear.2 mph34%29.77 "HgN/A
10:30 PM82 °FClear.6 mph30%29.77 "HgN/A
10:00 PM82 °FClear.3 mph30%29.77 "HgN/A
9:30 PM79 °FClear.1 mph34%29.80 "HgN/A
9:00 PM82 °FClear.6 mph30%29.77 "HgN/A
8:30 PM82 °FClear.6 mph30%29.77 "HgN/A
8:00 PM84 °FClear.6 mph29%29.77 "HgN/A
7:30 PM88 °FClear.5 mph25%29.77 "HgN/A
7:00 PM91 °FClear.9 mph20%29.77 "HgN/A
6:30 PM93 °FClear.9 mph17%29.77 "HgN/A
6:00 PM95 °FClear.10 mph16%29.77 "HgN/A
5:30 PM95 °FClear.12 mph16%29.77 "HgN/A
5:00 PM95 °FClear.15 mph18%29.77 "HgN/A
4:30 PM97 °FClear.5 mph20%29.77 "HgN/A
4:00 PM97 °FClear.5 mph16%29.77 "HgN/A
3:30 PM97 °FClear.3 mph13%29.77 "HgN/A
3:00 PM97 °FClear.7 mph13%29.77 "HgN/A
2:30 PM97 °FClear.8 mph19%29.77 "HgN/A
2:00 PM97 °FClear.7 mph16%29.77 "HgN/A
Weather by CustomWeather, © 2015

See weather overviewHow to use our weather pages